Year,Month,Day,Hour,Minute,Value (Times are PST for temperature in C)
2010,05,06,00,00,6.90
2010,05,06,00,01,6.80
2010,05,06,00,02,6.80
2010,05,06,00,03,6.80
2010,05,06,00,04,6.80
2010,05,06,00,05,6.80
2010,05,06,00,06,6.80
2010,05,06,00,07,6.80
2010,05,06,00,08,6.90
2010,05,06,00,09,6.90
2010,05,06,00,10,6.80
2010,05,06,00,11,6.90
2010,05,06,00,12,6.90
2010,05,06,00,13,6.80
2010,05,06,00,18,6.80
2010,05,06,00,19,6.80
2010,05,06,00,20,6.80
2010,05,06,00,21,6.80
2010,05,06,00,22,6.80
2010,05,06,00,23,6.80
2010,05,06,00,24,6.80
2010,05,06,00,25,6.80
2010,05,06,00,26,6.80
2010,05,06,00,27,6.80
2010,05,06,00,28,6.80
2010,05,06,00,29,6.80
2010,05,06,00,30,6.80
2010,05,06,00,31,6.80
2010,05,06,00,32,6.80
2010,05,06,00,33,6.80
2010,05,06,00,34,6.80
2010,05,06,00,35,6.80
2010,05,06,00,36,6.80
2010,05,06,00,37,6.80
2010,05,06,00,38,6.70
2010,05,06,00,39,6.70
2010,05,06,00,40,6.70
2010,05,06,00,41,6.70
2010,05,06,00,42,6.70
2010,05,06,00,43,6.70
2010,05,06,00,44,6.80
2010,05,06,00,45,6.70
2010,05,06,00,46,6.70
2010,05,06,00,47,6.70
2010,05,06,00,48,6.70
2010,05,06,00,49,6.70
2010,05,06,00,50,6.70
2010,05,06,00,51,6.70
2010,05,06,00,52,6.70
2010,05,06,00,53,6.70
2010,05,06,00,54,6.70
2010,05,06,00,55,6.70
2010,05,06,00,56,6.70
2010,05,06,00,57,6.70
2010,05,06,00,58,6.70
2010,05,06,00,59,6.70
2010,05,06,01,00,6.70
2010,05,06,01,01,6.70
2010,05,06,01,02,6.70
2010,05,06,01,03,6.70
2010,05,06,01,04,6.70
2010,05,06,01,05,6.70
2010,05,06,01,06,6.70
2010,05,06,01,07,6.70
2010,05,06,01,08,6.70
2010,05,06,01,09,6.70
2010,05,06,01,10,6.70
2010,05,06,01,11,6.60
2010,05,06,01,12,6.60
2010,05,06,01,13,6.60
2010,05,06,01,14,6.60
2010,05,06,01,15,6.70
2010,05,06,01,16,6.70
2010,05,06,01,17,6.70
2010,05,06,01,18,6.60
2010,05,06,01,19,6.60
2010,05,06,01,20,6.60
2010,05,06,01,21,6.60
2010,05,06,01,22,6.60
2010,05,06,01,23,6.70
2010,05,06,01,24,6.70
2010,05,06,01,25,6.70
2010,05,06,01,26,6.70
2010,05,06,01,27,6.70
2010,05,06,01,28,6.70
2010,05,06,01,29,6.70
2010,05,06,01,30,6.70
2010,05,06,01,31,6.70
2010,05,06,01,32,6.80
2010,05,06,01,33,6.80
2010,05,06,01,34,6.80
2010,05,06,01,35,6.80
2010,05,06,01,36,6.80
2010,05,06,01,37,6.80
2010,05,06,01,38,6.80
2010,05,06,01,39,6.80
2010,05,06,01,40,6.80
2010,05,06,01,41,6.80
2010,05,06,01,42,6.80
2010,05,06,01,43,6.80
2010,05,06,01,44,6.70
2010,05,06,01,45,6.70
2010,05,06,01,46,6.70
2010,05,06,01,47,6.70
2010,05,06,01,48,6.70
2010,05,06,01,49,6.70
2010,05,06,01,50,6.70
2010,05,06,01,51,6.80
2010,05,06,01,52,6.80
2010,05,06,01,53,6.80
2010,05,06,01,54,6.80
2010,05,06,01,55,6.80
2010,05,06,01,56,6.80
2010,05,06,01,57,6.80
2010,05,06,01,58,6.80
2010,05,06,01,59,6.80
2010,05,06,02,00,6.80
2010,05,06,02,01,6.80
2010,05,06,02,02,6.80
2010,05,06,02,03,6.80
2010,05,06,02,04,6.80
2010,05,06,02,05,6.90
2010,05,06,02,06,6.80
2010,05,06,02,07,6.90
2010,05,06,02,08,6.90
2010,05,06,02,09,6.90
2010,05,06,02,10,6.90
2010,05,06,02,11,6.90
2010,05,06,02,12,7.00
2010,05,06,02,13,7.00
2010,05,06,02,14,7.00
2010,05,06,02,15,7.00
2010,05,06,02,16,7.00
2010,05,06,02,17,7.00
2010,05,06,02,18,7.00
2010,05,06,02,19,7.00
2010,05,06,02,20,7.00
2010,05,06,02,21,7.00
2010,05,06,02,22,7.00
2010,05,06,02,23,7.00
2010,05,06,02,24,7.10
2010,05,06,02,25,7.00
2010,05,06,02,26,7.00
2010,05,06,02,27,7.00
2010,05,06,02,28,7.00
2010,05,06,02,29,7.00
2010,05,06,02,30,7.00
2010,05,06,02,31,7.00
2010,05,06,02,32,7.00
2010,05,06,02,33,7.00
2010,05,06,02,34,7.00
2010,05,06,02,35,7.00
2010,05,06,02,36,7.00
2010,05,06,02,37,7.00
2010,05,06,02,38,7.00
2010,05,06,02,39,7.00
2010,05,06,02,40,7.00
2010,05,06,02,41,7.00
2010,05,06,02,42,7.00
2010,05,06,02,43,7.00
2010,05,06,02,44,7.00
2010,05,06,02,45,7.00
2010,05,06,02,46,7.00
2010,05,06,02,47,7.10
2010,05,06,02,48,7.10
2010,05,06,02,49,7.10
2010,05,06,02,50,7.10
2010,05,06,02,51,7.10
2010,05,06,02,52,7.10
2010,05,06,02,53,7.10
2010,05,06,02,54,7.10
2010,05,06,02,55,7.10
2010,05,06,02,56,7.10
2010,05,06,02,57,7.10
2010,05,06,02,58,7.10
2010,05,06,02,59,7.10
2010,05,06,03,00,7.10
2010,05,06,03,01,7.10
2010,05,06,03,02,7.10
2010,05,06,03,03,7.10
2010,05,06,03,04,7.10
2010,05,06,03,05,7.10
2010,05,06,03,06,7.10
2010,05,06,03,07,7.10
2010,05,06,03,08,7.10
2010,05,06,03,09,7.10
2010,05,06,03,10,7.10
2010,05,06,03,11,7.10
2010,05,06,03,12,7.10
2010,05,06,03,13,7.10
2010,05,06,03,14,7.10
2010,05,06,03,15,7.10
2010,05,06,03,16,7.10
2010,05,06,03,17,7.10
2010,05,06,03,18,7.10
2010,05,06,03,19,7.10
2010,05,06,03,20,7.00
2010,05,06,03,21,7.00
2010,05,06,03,22,7.00
2010,05,06,03,23,7.00
2010,05,06,03,24,7.00
2010,05,06,03,25,7.00
2010,05,06,03,26,7.00
2010,05,06,03,27,7.00
2010,05,06,03,28,7.00
2010,05,06,03,29,7.00
2010,05,06,03,30,7.00
2010,05,06,03,31,7.00
2010,05,06,03,32,7.00
2010,05,06,03,33,6.90
2010,05,06,03,34,6.90
2010,05,06,03,35,6.90
2010,05,06,03,36,6.90
2010,05,06,03,37,6.90
2010,05,06,03,38,6.90
2010,05,06,03,39,6.90
2010,05,06,03,40,6.90
2010,05,06,03,41,6.90
2010,05,06,03,42,6.90
2010,05,06,03,43,6.90
2010,05,06,03,44,6.90
2010,05,06,03,45,6.90
2010,05,06,03,46,6.90
2010,05,06,03,47,6.90
2010,05,06,03,48,6.90
2010,05,06,03,49,6.90
2010,05,06,03,50,6.90
2010,05,06,03,51,6.90
2010,05,06,03,52,6.90
2010,05,06,03,53,6.90
2010,05,06,03,54,6.90
2010,05,06,03,55,6.90
2010,05,06,03,56,6.90
2010,05,06,03,57,6.90
2010,05,06,03,58,6.90
2010,05,06,03,59,6.90
2010,05,06,04,00,6.90
2010,05,06,04,01,6.90
2010,05,06,04,02,6.90
2010,05,06,04,03,6.90
2010,05,06,04,04,6.90
2010,05,06,04,05,6.90
2010,05,06,04,06,6.90
2010,05,06,04,07,6.90
2010,05,06,04,08,6.90
2010,05,06,04,09,6.90
2010,05,06,04,10,6.90
2010,05,06,04,11,6.90
2010,05,06,04,12,6.90
2010,05,06,04,13,6.90
2010,05,06,04,14,6.90
2010,05,06,04,15,6.90
2010,05,06,04,16,6.90
2010,05,06,04,17,6.90
2010,05,06,04,18,6.80
2010,05,06,04,19,6.90
2010,05,06,04,20,6.90
2010,05,06,04,21,6.90
2010,05,06,04,22,6.90
2010,05,06,04,23,6.90
2010,05,06,04,24,6.90
2010,05,06,04,25,6.90
2010,05,06,04,26,6.80
2010,05,06,04,27,6.90
2010,05,06,04,28,6.90
2010,05,06,04,29,6.90
2010,05,06,04,30,6.80
2010,05,06,04,31,6.80
2010,05,06,04,32,6.80
2010,05,06,04,33,6.80
2010,05,06,04,34,6.80
2010,05,06,04,35,6.80
2010,05,06,04,36,6.80
2010,05,06,04,37,6.80
2010,05,06,04,38,6.70
2010,05,06,04,39,6.80
2010,05,06,04,40,6.80
2010,05,06,04,41,6.80
2010,05,06,04,42,6.80
2010,05,06,04,43,6.80
2010,05,06,04,44,6.80
2010,05,06,04,45,6.80
2010,05,06,04,46,6.80
2010,05,06,04,47,6.80
2010,05,06,04,48,6.80
2010,05,06,04,49,6.70
2010,05,06,04,50,6.70
2010,05,06,04,51,6.70
2010,05,06,04,52,6.70
2010,05,06,04,53,6.60
2010,05,06,04,54,6.70
2010,05,06,04,55,6.70
2010,05,06,04,56,6.70
2010,05,06,04,57,6.70
2010,05,06,04,58,6.70
2010,05,06,04,59,6.70
2010,05,06,05,00,6.70
2010,05,06,05,01,6.80
2010,05,06,05,02,6.80
2010,05,06,05,03,6.80
2010,05,06,05,04,6.80
2010,05,06,05,05,6.70
2010,05,06,05,06,6.70
2010,05,06,05,07,6.70
2010,05,06,05,08,6.70
2010,05,06,05,09,6.70
2010,05,06,05,10,6.60
2010,05,06,05,11,6.60
2010,05,06,05,12,6.60
2010,05,06,05,13,6.60
2010,05,06,05,14,6.60
2010,05,06,05,15,6.50
2010,05,06,05,16,6.40
2010,05,06,05,17,6.40
2010,05,06,05,18,6.40
2010,05,06,05,19,6.30
2010,05,06,05,20,6.30
2010,05,06,05,21,6.20
2010,05,06,05,22,6.10
2010,05,06,05,23,6.10
2010,05,06,05,24,6.10
2010,05,06,05,25,6.10
2010,05,06,05,26,6.20
2010,05,06,05,27,6.10
2010,05,06,05,28,6.10
2010,05,06,05,29,6.10
2010,05,06,05,30,6.10
2010,05,06,05,31,6.00
2010,05,06,05,32,5.90
2010,05,06,05,33,5.80
2010,05,06,05,34,5.80
2010,05,06,05,35,5.80
2010,05,06,05,36,5.80
2010,05,06,05,37,5.80
2010,05,06,05,38,5.80
2010,05,06,05,39,5.80
2010,05,06,05,40,5.80
2010,05,06,05,41,5.80
2010,05,06,05,42,5.80
2010,05,06,05,43,5.80
2010,05,06,05,44,5.70
2010,05,06,05,45,5.70
2010,05,06,05,46,5.60
2010,05,06,05,47,5.60
2010,05,06,05,48,5.60
2010,05,06,05,49,5.70
2010,05,06,05,50,5.70
2010,05,06,05,51,5.70
2010,05,06,05,52,5.70
2010,05,06,05,53,5.70
2010,05,06,05,54,5.70
2010,05,06,05,55,5.70
2010,05,06,05,56,5.70
2010,05,06,05,57,5.70
2010,05,06,05,58,5.70
2010,05,06,05,59,5.80
2010,05,06,06,00,5.80
2010,05,06,06,01,5.80
2010,05,06,06,02,5.90
2010,05,06,06,03,5.90
2010,05,06,06,04,5.90
2010,05,06,06,05,5.90
2010,05,06,06,06,6.00
2010,05,06,06,07,6.00
2010,05,06,06,08,5.90
2010,05,06,06,09,5.90
2010,05,06,06,10,5.90
2010,05,06,06,11,5.90
2010,05,06,06,12,6.00
2010,05,06,06,13,6.00
2010,05,06,06,14,6.00
2010,05,06,06,15,6.00
2010,05,06,06,16,6.10
2010,05,06,06,17,6.10
2010,05,06,06,18,6.20
2010,05,06,06,19,6.20
2010,05,06,06,20,6.20
2010,05,06,06,21,6.30
2010,05,06,06,22,6.30
2010,05,06,06,23,6.40
2010,05,06,06,24,6.40
2010,05,06,06,25,6.40
2010,05,06,06,26,6.40
2010,05,06,06,27,6.40
2010,05,06,06,28,6.40
2010,05,06,06,29,6.40
2010,05,06,06,30,6.40
2010,05,06,06,31,6.40
2010,05,06,06,32,6.40
2010,05,06,06,33,6.30
2010,05,06,06,34,6.30
2010,05,06,06,35,6.30
2010,05,06,06,36,6.30
2010,05,06,06,37,6.30
2010,05,06,06,38,6.30
2010,05,06,06,39,6.30
2010,05,06,06,40,6.40
2010,05,06,06,41,6.40
2010,05,06,06,42,6.40
2010,05,06,06,43,6.40
2010,05,06,06,44,6.40
2010,05,06,06,45,6.40
2010,05,06,06,46,6.40
2010,05,06,06,47,6.40
2010,05,06,06,48,6.50
2010,05,06,06,49,6.50
2010,05,06,06,50,6.50
2010,05,06,06,51,6.50
2010,05,06,06,52,6.60
2010,05,06,06,53,6.60
2010,05,06,06,54,6.60
2010,05,06,06,55,6.60
2010,05,06,06,56,6.60
2010,05,06,06,57,6.60
2010,05,06,06,58,6.70
2010,05,06,06,59,6.70
2010,05,06,07,00,6.70
2010,05,06,07,01,6.70
2010,05,06,07,02,6.70
2010,05,06,07,03,6.80
2010,05,06,07,04,6.80
2010,05,06,07,05,6.80
2010,05,06,07,06,6.80
2010,05,06,07,07,6.80
2010,05,06,07,08,6.80
2010,05,06,07,09,6.90
2010,05,06,07,10,6.90
2010,05,06,07,11,6.90
2010,05,06,07,12,6.90
2010,05,06,07,13,6.90
2010,05,06,07,14,6.90
2010,05,06,07,15,6.90
2010,05,06,07,16,7.00
2010,05,06,07,17,7.00
2010,05,06,07,18,7.00
2010,05,06,07,19,7.10
2010,05,06,07,20,7.10
2010,05,06,07,21,7.20
2010,05,06,07,22,7.20
2010,05,06,07,23,7.20
2010,05,06,07,24,7.30
2010,05,06,07,25,7.30
2010,05,06,07,26,7.40
2010,05,06,07,27,7.40
2010,05,06,07,28,7.50
2010,05,06,07,29,7.50
2010,05,06,07,30,7.60
2010,05,06,07,31,7.60
2010,05,06,07,32,7.70
2010,05,06,07,33,7.70
2010,05,06,07,34,7.80
2010,05,06,07,35,7.80
2010,05,06,07,36,7.90
2010,05,06,07,37,7.90
2010,05,06,07,38,8.00
2010,05,06,07,39,8.10
2010,05,06,07,40,8.10
2010,05,06,07,41,8.10
2010,05,06,07,42,8.20
2010,05,06,07,43,8.20
2010,05,06,07,44,8.20
2010,05,06,07,45,8.20
2010,05,06,07,46,8.20
2010,05,06,07,47,8.20
2010,05,06,07,48,8.30
2010,05,06,07,49,8.30
2010,05,06,07,50,8.30
2010,05,06,07,51,8.40
2010,05,06,07,52,8.40
2010,05,06,07,53,8.50
2010,05,06,07,54,8.50
2010,05,06,07,55,8.50
2010,05,06,07,56,8.60
2010,05,06,07,57,8.60
2010,05,06,07,58,8.60
2010,05,06,07,59,8.70
2010,05,06,08,00,8.70
2010,05,06,08,01,8.70
2010,05,06,08,02,8.70
2010,05,06,08,03,8.70
2010,05,06,08,04,8.70
2010,05,06,08,05,8.70
2010,05,06,08,06,8.70
2010,05,06,08,07,8.80
2010,05,06,08,08,8.80
2010,05,06,08,09,8.80
2010,05,06,08,10,8.80
2010,05,06,08,11,8.90
2010,05,06,08,12,8.90
2010,05,06,08,13,8.90
2010,05,06,08,14,9.00
2010,05,06,08,15,9.00
2010,05,06,08,16,9.10
2010,05,06,08,17,9.10
2010,05,06,08,18,9.20
2010,05,06,08,19,9.20
2010,05,06,08,20,9.30
2010,05,06,08,21,9.30
2010,05,06,08,22,9.30
2010,05,06,08,23,9.30
2010,05,06,08,24,9.30
2010,05,06,08,25,9.30
2010,05,06,08,26,9.30
2010,05,06,08,27,9.30
2010,05,06,08,28,9.30
2010,05,06,08,29,9.30
2010,05,06,08,30,9.30
2010,05,06,08,31,9.40
2010,05,06,08,32,9.40
2010,05,06,08,33,9.50
2010,05,06,08,34,9.50
2010,05,06,08,35,9.60
2010,05,06,08,36,9.60
2010,05,06,08,37,9.60
2010,05,06,08,38,9.60
2010,05,06,08,39,9.60
2010,05,06,08,40,9.60
2010,05,06,08,41,9.70
2010,05,06,08,42,9.70
2010,05,06,08,43,9.70
2010,05,06,08,44,9.80
2010,05,06,08,45,9.80
2010,05,06,08,46,9.80
2010,05,06,08,47,9.90
2010,05,06,08,48,9.90
2010,05,06,08,49,10.00
2010,05,06,08,50,10.10
2010,05,06,08,51,10.10
2010,05,06,08,52,10.10
2010,05,06,08,53,10.10
2010,05,06,08,54,10.00
2010,05,06,08,55,10.00
2010,05,06,08,56,10.10
2010,05,06,08,57,10.10
2010,05,06,08,58,10.10
2010,05,06,08,59,10.10
2010,05,06,09,00,10.20
2010,05,06,09,01,10.20
2010,05,06,09,02,10.10
2010,05,06,09,03,10.10
2010,05,06,09,04,10.20
2010,05,06,09,05,10.20
2010,05,06,09,06,10.30
2010,05,06,09,07,10.30
2010,05,06,09,08,10.30
2010,05,06,09,09,10.40
2010,05,06,09,10,10.40
2010,05,06,09,11,10.40
2010,05,06,09,12,10.40
2010,05,06,09,13,10.50
2010,05,06,09,14,10.50
2010,05,06,09,15,10.50
2010,05,06,09,16,10.40
2010,05,06,09,17,10.40
2010,05,06,09,18,10.50
2010,05,06,09,19,10.60
2010,05,06,09,20,10.60
2010,05,06,09,21,10.70
2010,05,06,09,22,10.80
2010,05,06,09,23,10.90
2010,05,06,09,24,10.90
2010,05,06,09,25,10.90
2010,05,06,09,26,10.90
2010,05,06,09,27,10.90
2010,05,06,09,28,10.90
2010,05,06,09,29,10.90
2010,05,06,09,30,10.90
2010,05,06,09,31,10.90
2010,05,06,09,32,10.90
2010,05,06,09,33,10.80
2010,05,06,09,34,10.80
2010,05,06,09,35,10.80
2010,05,06,09,36,10.80
2010,05,06,09,37,10.70
2010,05,06,09,38,10.70
2010,05,06,09,39,10.70
2010,05,06,09,40,10.60
2010,05,06,09,41,10.60
2010,05,06,09,42,10.60
2010,05,06,09,43,10.50
2010,05,06,09,44,10.50
2010,05,06,09,45,10.50
2010,05,06,09,46,10.50
2010,05,06,09,47,10.40
2010,05,06,09,48,10.40
2010,05,06,09,49,10.40
2010,05,06,09,50,10.30
2010,05,06,09,51,10.30
2010,05,06,09,52,10.30
2010,05,06,09,53,10.30
2010,05,06,09,54,10.30
2010,05,06,09,55,10.30
2010,05,06,09,56,10.30
2010,05,06,09,57,10.30
2010,05,06,09,58,10.30
2010,05,06,09,59,10.40
2010,05,06,10,00,10.50
2010,05,06,10,01,10.50
2010,05,06,10,02,10.50
2010,05,06,10,03,10.50
2010,05,06,10,04,10.60
2010,05,06,10,05,10.60
2010,05,06,10,06,10.60
2010,05,06,10,07,10.60
2010,05,06,10,08,10.60
2010,05,06,10,09,10.60
2010,05,06,10,10,10.60
2010,05,06,10,11,10.70
2010,05,06,10,12,10.70
2010,05,06,10,13,10.70
2010,05,06,10,14,10.70
2010,05,06,10,15,10.70
2010,05,06,10,16,10.70
2010,05,06,10,17,10.70
2010,05,06,10,18,10.80
2010,05,06,10,19,10.80
2010,05,06,10,20,10.90
2010,05,06,10,21,10.90
2010,05,06,10,22,11.00
2010,05,06,10,23,11.00
2010,05,06,10,24,11.10
2010,05,06,10,25,11.10
2010,05,06,10,26,11.20
2010,05,06,10,27,11.30
2010,05,06,10,28,11.30
2010,05,06,10,29,11.30
2010,05,06,10,30,11.40
2010,05,06,10,31,11.40
2010,05,06,10,32,11.50
2010,05,06,10,33,11.50
2010,05,06,10,34,11.50
2010,05,06,10,35,11.60
2010,05,06,10,36,11.60
2010,05,06,10,37,11.60
2010,05,06,10,38,11.70
2010,05,06,10,39,11.70
2010,05,06,10,40,11.60
2010,05,06,10,41,11.60
2010,05,06,10,42,11.60
2010,05,06,10,43,11.60
2010,05,06,10,44,11.60
2010,05,06,10,45,11.50
2010,05,06,10,46,11.40
2010,05,06,10,47,11.30
2010,05,06,10,48,11.20
2010,05,06,10,49,11.10
2010,05,06,10,50,11.10
2010,05,06,10,51,11.10
2010,05,06,10,52,11.00
2010,05,06,10,53,11.00
2010,05,06,10,54,11.00
2010,05,06,10,55,11.00
2010,05,06,10,56,11.00
2010,05,06,10,57,11.00
2010,05,06,10,58,11.00
2010,05,06,10,59,11.00
2010,05,06,11,00,11.10
2010,05,06,11,01,11.00
2010,05,06,11,02,11.00
2010,05,06,11,03,11.10
2010,05,06,11,04,11.10
2010,05,06,11,05,11.10
2010,05,06,11,06,11.20
2010,05,06,11,07,11.20
2010,05,06,11,08,11.30
2010,05,06,11,09,11.40
2010,05,06,11,10,11.50
2010,05,06,11,11,11.60
2010,05,06,11,12,11.60
2010,05,06,11,13,11.50
2010,05,06,11,14,11.50
2010,05,06,11,15,11.60
2010,05,06,11,16,11.60
2010,05,06,11,17,11.60
2010,05,06,11,18,11.50
2010,05,06,11,19,11.40
2010,05,06,11,20,11.40
2010,05,06,11,21,11.50
2010,05,06,11,22,11.50
2010,05,06,11,23,11.60
2010,05,06,11,24,11.60
2010,05,06,11,25,11.70
2010,05,06,11,26,11.80
2010,05,06,11,27,11.90
2010,05,06,11,28,11.90
2010,05,06,11,29,11.90
2010,05,06,11,30,12.00
2010,05,06,11,31,12.10
2010,05,06,11,32,12.10
2010,05,06,11,33,12.20
2010,05,06,11,34,12.20
2010,05,06,11,35,12.30
2010,05,06,11,36,12.30
2010,05,06,11,37,12.30
2010,05,06,11,38,12.40
2010,05,06,11,39,12.50
2010,05,06,11,40,12.60
2010,05,06,11,41,12.70
2010,05,06,11,42,12.70
2010,05,06,11,43,12.70
2010,05,06,11,44,12.80
2010,05,06,11,45,12.90
2010,05,06,11,46,12.90
2010,05,06,11,47,12.90
2010,05,06,11,48,13.00
2010,05,06,11,49,13.00
2010,05,06,11,50,13.00
2010,05,06,11,51,13.10
2010,05,06,11,52,13.20
2010,05,06,11,53,13.10
2010,05,06,11,54,13.00
2010,05,06,11,55,12.90
2010,05,06,11,56,12.70
2010,05,06,11,57,12.60
2010,05,06,11,58,12.60
2010,05,06,11,59,12.50
2010,05,06,12,00,12.40
2010,05,06,12,01,12.40
2010,05,06,12,02,12.40
2010,05,06,12,03,12.40
2010,05,06,12,04,12.40
2010,05,06,12,05,12.30
2010,05,06,12,06,12.30
2010,05,06,12,07,12.30
2010,05,06,12,08,12.30
2010,05,06,12,09,12.20
2010,05,06,12,10,12.20
2010,05,06,12,11,12.20
2010,05,06,12,12,12.30
2010,05,06,12,13,12.50
2010,05,06,12,14,12.50
2010,05,06,12,15,12.50
2010,05,06,12,16,12.60
2010,05,06,12,17,12.70
2010,05,06,12,18,12.70
2010,05,06,12,19,12.90
2010,05,06,12,20,13.00
2010,05,06,12,21,13.00
2010,05,06,12,22,13.00
2010,05,06,12,23,13.00
2010,05,06,12,24,13.00
2010,05,06,12,25,12.90
2010,05,06,12,26,12.70
2010,05,06,12,27,12.70
2010,05,06,12,28,12.70
2010,05,06,12,29,12.70
2010,05,06,12,30,12.70
2010,05,06,12,31,12.80
2010,05,06,12,32,12.70
2010,05,06,12,33,12.60
2010,05,06,12,34,12.50
2010,05,06,12,35,12.50
2010,05,06,12,36,12.40
2010,05,06,12,37,12.40
2010,05,06,12,38,12.40
2010,05,06,12,39,12.50
2010,05,06,12,40,12.60
2010,05,06,12,41,12.70
2010,05,06,12,42,12.70
2010,05,06,12,43,12.70
2010,05,06,12,44,12.60
2010,05,06,12,45,12.50
2010,05,06,12,46,12.50
2010,05,06,12,47,12.50
2010,05,06,12,48,12.50
2010,05,06,12,49,12.50
2010,05,06,12,50,12.40
2010,05,06,12,51,12.40
2010,05,06,12,52,12.40
2010,05,06,12,53,12.40
2010,05,06,12,54,12.40
2010,05,06,12,55,12.50
2010,05,06,12,56,12.50
2010,05,06,12,57,12.60
2010,05,06,12,58,12.60
2010,05,06,12,59,12.60
2010,05,06,13,00,12.70
2010,05,06,13,01,12.70
2010,05,06,13,02,12.90
2010,05,06,13,03,13.00
2010,05,06,13,04,13.10
2010,05,06,13,05,13.20
2010,05,06,13,06,13.20
2010,05,06,13,07,13.10
2010,05,06,13,08,13.10
2010,05,06,13,09,13.00
2010,05,06,13,10,13.00
2010,05,06,13,11,12.90
2010,05,06,13,12,12.80
2010,05,06,13,13,12.60
2010,05,06,13,14,12.50
2010,05,06,13,15,12.40
2010,05,06,13,16,12.40
2010,05,06,13,17,12.40
2010,05,06,13,18,12.30
2010,05,06,13,19,12.30
2010,05,06,13,20,12.40
2010,05,06,13,21,12.40
2010,05,06,13,22,12.30
2010,05,06,13,23,12.30
2010,05,06,13,24,12.20
2010,05,06,13,25,12.20
2010,05,06,13,26,12.20
2010,05,06,13,27,12.30
2010,05,06,13,28,12.50
2010,05,06,13,29,12.60
2010,05,06,13,30,12.60
2010,05,06,13,31,12.60
2010,05,06,13,32,12.60
2010,05,06,13,33,12.60
2010,05,06,13,34,12.40
2010,05,06,13,35,12.40
2010,05,06,13,36,12.30
2010,05,06,13,37,12.20
2010,05,06,13,38,12.00
2010,05,06,13,39,11.80
2010,05,06,13,40,11.60
2010,05,06,13,41,11.40
2010,05,06,13,42,11.30
2010,05,06,13,43,11.10
2010,05,06,13,44,11.10
2010,05,06,13,45,11.00
2010,05,06,13,46,10.90
2010,05,06,13,47,10.90
2010,05,06,13,48,10.90
2010,05,06,13,49,10.90
2010,05,06,13,50,10.80
2010,05,06,13,51,10.70
2010,05,06,13,52,10.70
2010,05,06,13,53,10.60
2010,05,06,13,54,10.60
2010,05,06,13,55,10.70
2010,05,06,13,56,10.70
2010,05,06,13,57,10.80
2010,05,06,13,58,10.90
2010,05,06,13,59,10.90
2010,05,06,14,00,10.80
2010,05,06,14,01,10.80
2010,05,06,14,02,10.90
2010,05,06,14,03,10.80
2010,05,06,14,04,10.80
2010,05,06,14,05,10.80
2010,05,06,14,06,10.70
2010,05,06,14,07,10.70
2010,05,06,14,08,10.70
2010,05,06,14,09,10.80
2010,05,06,14,10,10.80
2010,05,06,14,11,10.70
2010,05,06,14,12,10.80
2010,05,06,14,13,10.70
2010,05,06,14,14,10.70
2010,05,06,14,15,10.80
2010,05,06,14,16,10.80
2010,05,06,14,17,10.80
2010,05,06,14,18,10.80
2010,05,06,14,19,10.90
2010,05,06,14,20,10.90
2010,05,06,14,21,10.90
2010,05,06,14,22,11.00
2010,05,06,14,23,11.00
2010,05,06,14,24,11.10
2010,05,06,14,25,11.10
2010,05,06,14,26,11.10
2010,05,06,14,27,11.10
2010,05,06,14,28,11.20
2010,05,06,14,29,11.20
2010,05,06,14,30,11.30
2010,05,06,14,31,11.30
2010,05,06,14,32,11.50
2010,05,06,14,33,11.60
2010,05,06,14,34,11.70
2010,05,06,14,35,11.70
2010,05,06,14,36,11.80
2010,05,06,14,37,11.80
2010,05,06,14,38,11.80
2010,05,06,14,39,11.80
2010,05,06,14,40,11.90
2010,05,06,14,41,11.90
2010,05,06,14,42,11.90
2010,05,06,14,43,12.00
2010,05,06,14,44,12.10
2010,05,06,14,45,12.20
2010,05,06,14,46,12.30
2010,05,06,14,47,12.50
2010,05,06,14,48,12.70
2010,05,06,14,49,12.80
2010,05,06,14,50,12.90
2010,05,06,14,51,12.80
2010,05,06,14,52,12.80
2010,05,06,14,53,12.70
2010,05,06,14,54,12.60
2010,05,06,14,55,12.50
2010,05,06,14,56,12.40
2010,05,06,14,57,12.40
2010,05,06,14,58,12.50
2010,05,06,14,59,12.60
2010,05,06,15,00,12.80
2010,05,06,15,01,12.80
2010,05,06,15,02,12.80
2010,05,06,15,03,12.90
2010,05,06,15,04,12.90
2010,05,06,15,05,12.80
2010,05,06,15,06,12.80
2010,05,06,15,07,12.80
2010,05,06,15,08,12.70
2010,05,06,15,09,12.70
2010,05,06,15,10,12.70
2010,05,06,15,11,12.80
2010,05,06,15,12,12.90
2010,05,06,15,13,13.00
2010,05,06,15,14,13.10
2010,05,06,15,15,13.20
2010,05,06,15,16,13.40
2010,05,06,15,17,13.50
2010,05,06,15,18,13.60
2010,05,06,15,19,13.60
2010,05,06,15,20,13.50
2010,05,06,15,21,13.40
2010,05,06,15,22,13.30
2010,05,06,15,23,13.30
2010,05,06,15,24,13.20
2010,05,06,15,25,13.20
2010,05,06,15,26,13.20
2010,05,06,15,27,13.20
2010,05,06,15,28,13.20
2010,05,06,15,29,13.30
2010,05,06,15,30,13.40
2010,05,06,15,31,13.40
2010,05,06,15,32,13.40
2010,05,06,15,33,13.40
2010,05,06,15,34,13.50
2010,05,06,15,35,13.60
2010,05,06,15,36,13.60
2010,05,06,15,37,13.70
2010,05,06,15,38,13.90
2010,05,06,15,39,14.00
2010,05,06,15,40,14.10
2010,05,06,15,41,14.10
2010,05,06,15,42,13.90
2010,05,06,15,43,13.80
2010,05,06,15,44,13.70
2010,05,06,15,45,13.60
2010,05,06,15,46,13.60
2010,05,06,15,47,13.50
2010,05,06,15,48,13.40
2010,05,06,15,49,13.40
2010,05,06,15,50,13.30
2010,05,06,15,51,13.30
2010,05,06,15,52,13.30
2010,05,06,15,53,13.50
2010,05,06,15,54,13.60
2010,05,06,15,55,13.80
2010,05,06,15,56,14.00
2010,05,06,15,57,14.10
2010,05,06,15,58,14.10
2010,05,06,15,59,14.10
2010,05,06,16,00,14.00
2010,05,06,16,01,14.00
2010,05,06,16,02,14.00
2010,05,06,16,03,13.90
2010,05,06,16,04,13.80
2010,05,06,16,05,13.80
2010,05,06,16,06,13.90
2010,05,06,16,07,13.90
2010,05,06,16,08,13.80
2010,05,06,16,09,13.80
2010,05,06,16,10,13.80
2010,05,06,16,11,13.90
2010,05,06,16,12,13.90
2010,05,06,16,13,13.90
2010,05,06,16,14,13.70
2010,05,06,16,15,13.60
2010,05,06,16,16,13.60
2010,05,06,16,17,13.50
2010,05,06,16,18,13.40
2010,05,06,16,19,13.40
2010,05,06,16,20,13.40
2010,05,06,16,21,13.50
2010,05,06,16,22,13.60
2010,05,06,16,23,13.60
2010,05,06,16,24,13.60
2010,05,06,16,25,13.60
2010,05,06,16,26,13.60
2010,05,06,16,27,13.50
2010,05,06,16,28,13.40
2010,05,06,16,29,13.20
2010,05,06,16,30,13.10
2010,05,06,16,31,13.00
2010,05,06,16,32,12.90
2010,05,06,16,33,12.90
2010,05,06,16,34,13.00
2010,05,06,16,35,13.10
2010,05,06,16,36,13.20
2010,05,06,16,37,13.40
2010,05,06,16,38,13.40
2010,05,06,16,39,13.40
2010,05,06,16,40,13.40
2010,05,06,16,41,13.40
2010,05,06,16,42,13.40
2010,05,06,16,43,13.30
2010,05,06,16,44,13.20
2010,05,06,16,45,13.20
2010,05,06,16,46,13.30
2010,05,06,16,47,13.30
2010,05,06,16,48,13.40
2010,05,06,16,49,13.40
2010,05,06,16,50,13.40
2010,05,06,16,51,13.50
2010,05,06,16,52,13.40
2010,05,06,16,53,13.30
2010,05,06,16,54,13.30
2010,05,06,16,55,13.20
2010,05,06,16,56,13.10
2010,05,06,16,57,13.00
2010,05,06,16,58,12.90
2010,05,06,16,59,12.80
2010,05,06,17,00,12.70
2010,05,06,17,01,12.60
2010,05,06,17,02,12.50
2010,05,06,17,03,12.50
2010,05,06,17,04,12.40
2010,05,06,17,05,12.40
2010,05,06,17,06,12.40
2010,05,06,17,07,12.40
2010,05,06,17,08,12.40
2010,05,06,17,09,12.40
2010,05,06,17,10,12.40
2010,05,06,17,11,12.40
2010,05,06,17,12,12.40
2010,05,06,17,13,12.40
2010,05,06,17,14,12.50
2010,05,06,17,15,12.50
2010,05,06,17,16,12.60
2010,05,06,17,17,12.60
2010,05,06,17,18,12.70
2010,05,06,17,19,12.80
2010,05,06,17,20,13.00
2010,05,06,17,21,13.10
2010,05,06,17,22,13.10
2010,05,06,17,23,13.10
2010,05,06,17,24,13.10
2010,05,06,17,25,13.00
2010,05,06,17,26,13.00
2010,05,06,17,27,13.00
2010,05,06,17,28,12.90
2010,05,06,17,29,12.90
2010,05,06,17,30,13.00
2010,05,06,17,31,13.00
2010,05,06,17,32,13.10
2010,05,06,17,33,13.10
2010,05,06,17,34,13.20
2010,05,06,17,35,13.20
2010,05,06,17,36,13.10
2010,05,06,17,37,13.10
2010,05,06,17,38,13.00
2010,05,06,17,39,13.00
2010,05,06,17,40,13.00
2010,05,06,17,41,13.10
2010,05,06,17,42,13.20
2010,05,06,17,43,13.20
2010,05,06,17,44,13.30
2010,05,06,17,45,13.30
2010,05,06,17,46,13.30